Home   Weather   Legnica   Past weeks
Flag for Poland

Past Weather in Legnica, Poland — Yesterday and Last 2 Weeks

Now
71 °F

Passing clouds.


Feels Like: 73 °F
Forecast: 85 / 63 °F
Wind: 5 mph from Southeast

Location: Wroclaw Ii

Current Time: Jun 19, 2019 at 9:09:55 am

Latest Report: Jun 19, 2019 at 8:00 am


Visibility: 19 mi

Pressure: 29.93 "Hg

Humidity: 75%

Dew Point: 63 °F

Location of LegnicaLocation

Past Weather in Legnica — Graph

°F

Legnica Temperature Yesterday

Maximum temperature yesterday: 80 °F (at 7:00 pm)
Minimum temperature yesterday: 59 °F (at 5:00 am)
Average temperature yesterday: 71 °F

High & Low Weather Summary for the Past Weeks

 TemperatureHumidityPressure
High93 °F (Jun 15, 2:00 pm)94% (Jun 8, 4:00 am)30.34 "Hg (Jun 8, 4:00 am)
Low50 °F (Jun 9, 3:00 am)32% (Jun 9, 4:00 pm)29.75 "Hg (Jun 12, 6:00 pm)
Average72 °F65%29.98 "Hg
* Reported Jun 4 7:00 am — Jun 19 7:00 am, Legnica. Weather by CustomWeather, © 2019

Note: Actual official high and low records may vary slightly from our data, if they occured in-between our weather recording intervals... More about our weather records

Advertising

Legnica Weather History for the Previous 24 Hours

Scroll right to see more
 ConditionsComfort  
Time TempWeatherWind HumidityBarometerVisibility
7:00 am
Wed, Jun 19
67 °FPassing clouds.3 mph82%29.94 "Hg19 mi
6:00 am63 °FPassing clouds.2 mph88%29.95 "Hg19 mi
5:00 am60 °FPassing clouds.1 mph89%29.95 "Hg19 mi
4:00 am63 °FPassing clouds.3 mph85%29.96 "Hg19 mi
3:00 am63 °FPassing clouds.2 mph84%29.97 "Hg25 mi
2:00 am65 °FClear.2 mph78%29.97 "Hg25 mi
1:00 am64 °FClear.2 mph78%29.98 "Hg25 mi
12:00 am66 °FClear.3 mph74%29.99 "Hg25 mi
11:00 pm
Tue, Jun 18
69 °FPassing clouds.2 mph64%29.99 "Hg25 mi
10:00 pm72 °FPassing clouds.1 mph58%29.99 "Hg31 mi
9:00 pm74 °FPassing clouds.29 mph53%29.99 "Hg2 mi
8:00 pm77 °FPassing clouds.2 mph50%29.98 "Hg31 mi
7:00 pm80 °FScattered clouds.5 mph43%29.99 "Hg31 mi
6:00 pm79 °FPartly sunny.2 mph44%29.99 "Hg31 mi
5:00 pm78 °FPartly sunny.3 mph45%30.01 "Hg31 mi
4:00 pm78 °FPartly sunny.3 mph44%30.03 "Hg31 mi
3:00 pm78 °FPartly sunny.5 mph46%30.05 "Hg31 mi
2:00 pm78 °FPassing clouds.30 mph46%30.06 "Hg2 mi
1:00 pm77 °FOvercast.3 mph45%30.09 "Hg31 mi
12:00 pm76 °FOvercast.3 mph49%30.10 "Hg31 mi
11:00 am74 °FOvercast.5 mph52%30.11 "Hg31 mi
10:00 am73 °FOvercast.5 mph56%30.12 "Hg31 mi
9:00 am71 °FOvercast.3 mph65%30.13 "Hg31 mi
Weather by CustomWeather, © 2019

See weather overview